Regional Weather Roundup
Issued by NWS

Home | Current Version | Previous Version | Text Only | Print | Product List | Glossary Off
Versions: 1 2 3 4 5 6 7 8 9 10 11 12 13 14 15 16 17 18 19 20 21 22 23 24 25 26 27 28 29 30 31 32 33 34 35 36 37 38 39 40 41 42 43 44 45 46 47 48 49 50

431
ASUS43 KIND 122109
RWRIN

WEATHER ROUNDUP FOR INDIANA
NATIONAL WEATHER SERVICE INDIANAPOLIS IN
400 PM EST FRI FEB 12 2016

NOTE: "FAIR" INDICATES FEW OR NO CLOUDS BELOW 12,000 FEET WITH NO
SIGNIFICANT WEATHER AND/OR OBSTRUCTIONS TO VISIBILITY.

* - STATION DOES NOT REPORT WEATHER SUCH AS PRECIPITATION OR FOG.

+ - STATION NOT QUALITY CONTROLLED BY THE NATIONAL WEATHER SERVICE.
    USE DATA WITH CAUTION...ESPECIALLY DEWPOINT AND RELATIVE
    HUMIDITY OBSERVATIONS.

INZ001>003-010>013-019-020-122200-
NORTHWEST INDIANA

CITY           SKY/WX    TMP DP  RH WIND       PRES   REMARKS
GARY /AIRPORT/ PTSUNNY   25   3  39 NW8G39    30.16R WCI  16
KNOX *+        PTSUNNY   23  10  58 NW24      30.12R WCI   7
LA PORTE +     PTSUNNY   22  10  59 NW14G26   30.12R WCI   9
MICHIGAN CITY+ CLOUDY    21   9  58 NW13G23   30.14S WCI   9
MONTICELLO +   CLOUDY    25   7  46 NW23G30   30.13R WCI  10
RENSSELAER +   MOSUNNY   27   5  39 W21       30.15R WCI  13
VALPARAISO     CLOUDY    22   7  52 NW15G22   30.13R WCI   9

$$

LMZ046-743>745-122200-
SOUTHERN LAKE MICHIGAN

STATION/POSITION TIME  TEMP    WIND        PRES    WAVE
                       AIR SEA DIR/SP/G            HT
                 (UTC) (F)     (DEG/KT/KT) (MB)    (FT)
BURNS HARBOR     2000   22     320/ 18     1020.7S
MICHIGAN CITY    2000   21     270/ 21/ 26   N/A

$$

INZ004-005-014>016-021>024-122200-
NORTH CENTRAL INDIANA

CITY           SKY/WX    TMP DP  RH WIND       PRES   REMARKS
ELKHART        LGT SNOW  19  10  68 W16G25    30.09R WCI   5
GOSHEN         LGT SNOW  19  13  77 W18G25    30.08R VSB 3/4 WCI   4
LOGANSPORT +   PTSUNNY   23   9  54 W16G24    30.13R WCI  10
PERU/GRISSOM   FLURRIES  23  15  71 NW21      30.08R WCI   7
ROCHESTER +    MOSUNNY   25   7  46 NW14G24   30.10R WCI  13
SOUTH BEND     LGT SNOW  18  10  71 NW21G30   30.10R WCI   1
WARSAW +       CLOUDY    21  12  68 NW23      30.08R WCI   5

$$

INZ006>009-017-018-025>027-122200-
NORTHEAST INDIANA

CITY           SKY/WX    TMP DP  RH WIND       PRES   REMARKS
ANGOLA *+      PTSUNNY   19  12  73 NW13      30.01R WCI   7
AUBURN +       FLURRIES  21  14  73 W17G31    30.05R WCI   7
FORT WAYNE     PTSUNNY   23  11  60 NW20G26   30.05R WCI   8
HUNTINGTON +   CLOUDY    22  12  66 NW15G21   30.07R WCI   8

$$

INZ028-029-035-036-043>045-051>053-122200-
WEST CENTRAL INDIANA

CITY           SKY/WX    TMP DP  RH WIND       PRES   REMARKS
GREENCASTLE +  LGT SNOW  27  18  69 W12G17    30.15S WCI  16
LAFAYETTE      PTSUNNY   24  11  57 NW16G31   30.16R WCI  11
TERRE HAUTE    LGT SNOW  27  21  78 NW13G20   30.20R WCI  16

$$

INZ030>032-037>040-046>048-054>057-064-065-122200-
CENTRAL INDIANA

CITY           SKY/WX    TMP DP  RH WIND       PRES   REMARKS
ANDERSON       LGT SNOW  25  19  80 W17G29    30.09S VSB 1   WCI  11
COLUMBUS       CLOUDY    28  19  69 W12G17    30.14R WCI  18
FISHERS *+     CLOUDY    23  21  93 NW18G24   30.12R WCI   9
FRANKFORT +    FLURRIES  25  10  53 W22G30    30.13R WCI  10
GREENWOOD *+   CLOUDY    27  23  86 W12G23    30.13R WCI  16
INDIANAPOLIS   LGT SNOW  25  19  78 W15G24    30.12R WCI  13
-EAGLE CREEK   LGT SNOW  25  19  78 NW20G28   30.12R WCI  11
KOKOMO *+      CLOUDY    23  12  63 NW25G33   30.09R WCI   7
MARION +       LGT SNOW  23  14  70 NW25G32   30.09R VSB 1   WCI   6
MT COMFORT *+  CLOUDY    25  19  80 W15G26    30.11R WCI  12
SHELBYVILLE    LGT SNOW  27  19  72 W20       30.11R WCI  13
ZIONSVILLE +   LGT SNOW  24  19  79 NW15G23   30.11S WCI  12

$$

INZ033-034-041-042-049-050-058-059-122200-
EAST CENTRAL INDIANA

CITY           SKY/WX    TMP DP  RH WIND       PRES   REMARKS
MUNCIE         LGT SNOW  25  18  74 W17G24    30.06S WCI  12

$$

INZ060-061-067>069-081>083-085>088-122200-
SOUTHWEST INDIANA

CITY           SKY/WX    TMP DP  RH WIND       PRES   REMARKS
EVANSVILLE     CLOUDY    32  23  69 NW10G24   30.25R WCI  24
HUNTINGBURG *+ CLOUDY    30  21  69 W16G22    30.22R WCI  19
WASHINGTON +   CLOUDY    29  20  69 NW16G25   30.21R WCI  18

$$

INZ062-063-066-070>080-084-089>092-122200-
SOUTH CENTRAL AND SOUTHEAST INDIANA

CITY           SKY/WX    TMP DP  RH WIND       PRES   REMARKS
BEDFORD +      FLURRIES  28  21  74 W10G21    30.16S WCI  19
BLOOMINGTON    LGT SNOW  27  19  72 W16G22    30.16R WCI  15
MADISON *+     CLOUDY    30  19  64 W14G20    30.14R WCI  20
NORTH VERNON + CLOUDY    28  18  64 W10       30.13S WCI  19
SEYMOUR +      CLOUDY    32  19  59 W15       30.15R WCI  22

$$





USA.gov is the U.S. government's official web portal to all federal, state and local government web resources and services.